#timestamp,LO_Frequency,Hit,StdDev 
1540422015.4,286047002.3,N
1540422035.2,286047002.5,N
1540422055.1,286047002.5,N
1540422056.0,286047002.5,N
1540422075.8,286047001.9,N
1540422095.7,286047001.8,N
1540422115.5,286046999.7,N
1540422165.4,286047000.9,E
1540422175.3,286047000.8,N
1540422195.1,286046999.3,P
1540422215.9,286046999.0,N
1540422235.7,286046998.4,N
1540422255.5,286046998.6,N
1540422275.4,286047000.7,N
1540422295.2,286046998.3,N
1540422315.0,286047000.9,N
1540422315.9,286047000.9,N
1540422335.8,286047002.3,N
1540422355.6,286047004.4,Y
1540422375.5,286047003.7,P
1540422395.3,286047000.4,N
1540422415.1,286046998.9,N
1540422435.9,286046998.1,N
1540422455.7,286047002.8,N
1540422475.5,286046998.2,N
1540422495.4,286046998.5,N
1540422515.2,286047001.2,N
1540422535.1,286046998.5,N
1540422536.0,286046998.5,N
1540422555.8,286047002.4,N
1540422575.6,286047002.6,N
1540422595.5,286047002.6,N
1540422615.3,286047002.5,N
1540422635.1,286047003.7,N
1540422655.9,286047003.2,N
1540422675.7,286047001.3,N
1540422695.6,286047004.4,N
1540422715.4,286047001.7,N
1540422735.2,286047002.7,N
1540422755.1,286047001.5,N
1540422756.0,286047001.5,N
1540422775.8,286047001.3,N
1540422795.6,286047004.1,N
1540422815.5,286047001.8,N
1540422835.3,286047005.4,N
1540422855.2,286047005.6,N
1540422875.9,286047004.4,N
1540422895.7,286047002.1,N
1540422915.6,286046999.7,N
1540422935.4,286047000.3,N
1540422955.2,286046998.2,N
1540422975.1,286046998.1,N
1540422976.0,286046998.1,N
1540422995.8,286047000.6,N
1540423015.7,286046999.7,N
1540423035.5,286047001.6,N
1540423055.3,286047002.6,N
1540423075.2,286046998.5,N
1540423095.0,286047001.1,N
1540423095.9,286047001.1,N
1540423115.7,286047000.5,N
1540423135.6,286046999.7,N
1540423155.4,286047002.7,N
1540423175.3,286047001.5,N
1540423195.1,286047004.0,N
1540423196.0,286047004.0,N
1540423215.8,286046999.9,N
1540423235.7,286046998.3,N
1540423255.5,286046998.9,N
1540423275.3,286047001.1,N
1540423295.2,286046996.5,N
1540423315.0,286046999.3,N
1540423315.9,286046999.3,N
1540423335.8,286046999.3,N
1540423355.6,286046998.9,N
1540423375.4,286047000.7,N
1540423395.3,286046998.4,N
1540423415.1,286046997.0,N
1540423435.9,286046998.6,N
1540423455.7,286046999.5,N
1540423475.5,286046998.8,N
1540423495.4,286046996.7,N
1540423515.2,286046996.9,N
1540423535.0,286046999.1,N
1540423535.9,286046999.1,N
1540423555.8,286046998.4,N
1540423575.6,286046998.4,N
1540423595.5,286046998.7,N
1540423615.3,286046998.9,N
1540423635.1,286046998.9,N
1540423655.9,286046996.5,N
1540423675.7,286046997.5,N
1540423695.5,286046997.6,N
1540423715.4,286046996.9,N
1540423735.2,286046997.1,N
1540423755.1,286046997.0,N
1540423756.0,286046997.0,N
1540423775.8,286046997.5,N
1540423795.6,286046996.7,N
1540423815.5,286046997.6,N
1540423835.3,286046997.7,N
1540423855.2,286046997.4,N
1540423875.9,286046997.1,N
1540423895.7,286046998.0,N
1540423915.6,286046996.8,Y
1540423935.4,286046998.1,P
1540423955.2,286047000.0,N
1540423975.1,286047000.9,N
1540423976.0,286047000.9,N
1540423995.8,286047001.1,N
1540424015.7,286047001.0,N
1540424035.5,286047000.6,N
1540424055.3,286047000.3,N
1540424075.2,286047001.1,N
1540424095.0,286047000.0,N
1540424095.9,286047000.0,N
1540424115.8,286047001.2,N
1540424135.6,286046996.6,Y
1540424155.4,286046996.8,P
1540424175.3,286046998.2,N
1540424195.1,286046999.8,N
1540424215.8,286047000.7,N
1540424235.7,286047000.3,N
1540424255.5,286047000.5,N
1540424275.4,286047000.9,N
1540424295.2,286047000.9,N
1540424315.0,286047000.6,N
1540424315.9,286047000.6,N
1540424335.8,286047002.3,N
1540424355.6,286047002.3,N
1540424375.4,286046998.2,N
1540424395.3,286046996.5,N
1540424415.1,286046996.5,N
1540424435.9,286047000.7,N
1540424455.7,286047000.6,N
1540424475.5,286047001.1,N
1540424495.4,286047000.6,N
1540424515.2,286047000.7,N
1540424535.0,286047000.1,N
1540424535.9,286047000.1,N
1540424555.8,286047000.6,N
1540424575.6,286047000.4,N
1540424595.5,286047000.0,N
1540424615.3,286047000.0,N
1540424635.1,286047001.1,N
1540424655.9,286047001.2,N
1540424675.7,286047001.2,N
1540424695.5,286046998.9,N
1540424715.4,286047001.1,N
1540424735.2,286047000.8,N
1540424755.0,286047000.0,N
1540424756.0,286047000.0,N
1540424775.8,286047002.8,N
1540424795.6,286047003.4,N
1540424815.5,286047004.1,N
1540424835.3,286047001.5,N
1540424855.1,286047002.1,N
1540424875.9,286046999.8,N
1540424895.7,286046999.7,N
1540424915.6,286047000.9,N
1540424935.4,286047000.3,N
1540424955.2,286046999.9,N
1540424975.1,286047000.9,N
1540424976.0,286047000.9,N
1540424995.8,286047002.7,N
1540425015.6,286046999.7,N
1540425035.5,286047000.7,N
1540425055.3,286046998.5,N
1540425075.2,286047001.2,N
1540425095.9,286047000.9,N
1540425115.7,286046998.4,N
1540425135.6,286046999.4,N
1540425155.4,286046998.3,N
1540425175.2,286046999.8,N
1540425195.1,286047000.2,N
1540425196.0,286047000.2,N
1540425215.8,286047002.3,N
1540425235.7,286047000.3,N
1540425255.5,286047002.5,N
1540425275.3,286047000.0,N
1540425295.2,286047000.2,N
1540425315.0,286047000.2,N
1540425315.9,286047000.2,N
1540425335.7,286047002.7,N
1540425355.6,286047002.5,N
1540425375.4,286047000.0,N
1540425395.3,286047001.6,N
1540425415.1,286047000.1,N
1540425416.0,286047000.1,N
1540425435.8,286047000.2,N
1540425455.7,286047000.6,N
1540425475.5,286047000.0,N
1540425495.4,286046999.9,N
1540425515.2,286047001.6,N
1540425535.0,286047000.2,N
1540425535.9,286047000.2,N
1540425555.8,286047002.5,N
1540425575.6,286047000.1,N
1540425595.4,286047000.9,N
